Radiation Dose at Monitoring Post of Fukushima Daini Nuclear Power Station
Date,Time,MP-1(microSv/h),MP-2(microSv/h),MP-3(microSv/h),MP-4(microSv/h),MP-5(microSv/h),MP-6(microSv/h),MP-7(microSv/h),Wind Direction,Wind Velocity(m/s),Rain
2017/04/27,00:00,0.380,0.233,0.402,0.371,0.334,0.194,0.168,north,5.8,Yes
2017/04/27,00:10,0.382,0.232,0.400,0.367,0.332,0.194,0.168,north,5.0,Yes
2017/04/27,00:20,0.382,0.232,0.402,0.371,0.331,0.194,0.167,north,5.9,Yes
2017/04/27,00:30,0.381,0.232,0.400,0.368,0.333,0.193,0.167,north-northwest,6.2,Yes
2017/04/27,00:40,0.382,0.232,0.402,0.371,0.332,0.194,0.168,north-northwest,5.0,Yes
2017/04/27,00:50,0.380,0.233,0.401,0.368,0.335,0.194,0.169,north,4.4,Yes
2017/04/27,01:00,0.383,0.233,0.400,0.370,0.330,0.195,0.168,north,6.8,Yes
2017/04/27,01:10,0.381,0.234,0.401,0.370,0.334,0.195,0.169,north,5.6,Yes
2017/04/27,01:20,0.382,0.233,0.402,0.369,0.332,0.195,0.168,north-northeast,6.4,Yes
2017/04/27,01:30,0.383,0.233,0.401,0.372,0.331,0.196,0.168,north-northeast,9.5,Yes
2017/04/27,01:40,0.381,0.233,0.401,0.368,0.333,0.195,0.169,north-northeast,9.5,Yes
2017/04/27,01:50,0.381,0.236,0.399,0.371,0.332,0.195,0.169,north-northeast,7.4,Yes
2017/04/27,02:00,0.382,0.233,0.403,0.368,0.332,0.195,0.169,north-northeast,8.1,Yes
2017/04/27,02:10,0.379,0.235,0.400,0.368,0.331,0.194,0.169,north-northeast,7.8,Yes
2017/04/27,02:20,0.381,0.234,0.399,0.368,0.329,0.194,0.168,north-northeast,6.9,Yes
2017/04/27,02:30,0.381,0.233,0.398,0.366,0.332,0.195,0.168,north,6.4,Yes
2017/04/27,02:40,0.379,0.232,0.397,0.367,0.330,0.195,0.168,north,6.9,Yes
2017/04/27,02:50,0.381,0.234,0.398,0.367,0.330,0.194,0.168,north-northeast,5.6,Yes
2017/04/27,03:00,0.377,0.233,0.398,0.366,0.329,0.195,0.168,north,7.0,Yes
2017/04/27,03:10,0.380,0.232,0.395,0.365,0.328,0.195,0.167,north-northeast,8.6,Yes
2017/04/27,03:20,0.379,0.233,0.396,0.364,0.329,0.195,0.167,north-northeast,8.4,Yes
2017/04/27,03:30,0.377,0.233,0.397,0.364,0.330,0.194,0.167,north-northeast,7.6,Yes
2017/04/27,03:40,0.378,0.232,0.395,0.365,0.328,0.195,0.166,north,6.1,Yes
2017/04/27,03:50,0.378,0.233,0.395,0.364,0.329,0.194,0.167,north,6.8,Yes
2017/04/27,04:00,0.375,0.233,0.395,0.361,0.331,0.194,0.167,north,8.1,Yes
2017/04/27,04:10,0.377,0.231,0.394,0.365,0.328,0.195,0.168,north,9.8,Yes
2017/04/27,04:20,0.376,0.232,0.393,0.362,0.329,0.194,0.168,north,9.5,Yes
2017/04/27,04:30,0.375,0.233,0.395,0.363,0.331,0.194,0.166,north,7.0,Yes
2017/04/27,04:40,0.377,0.232,0.394,0.364,0.328,0.195,0.166,north-northeast,7.5,Yes
2017/04/27,04:50,0.376,0.232,0.393,0.361,0.330,0.194,0.167,north-northeast,7.6,Yes
2017/04/27,05:00,0.377,0.233,0.395,0.363,0.330,0.194,0.167,north,6.2,Yes
2017/04/27,05:10,0.376,0.233,0.393,0.362,0.327,0.193,0.165,north,6.7,Yes
2017/04/27,05:20,0.376,0.231,0.392,0.361,0.328,0.192,0.165,north,5.9,Yes
2017/04/27,05:30,0.375,0.231,0.392,0.361,0.328,0.192,0.165,north,5.7,No
2017/04/27,05:40,0.376,0.229,0.390,0.361,0.326,0.191,0.163,north,5.6,No
2017/04/27,05:50,0.374,0.229,0.389,0.359,0.326,0.191,0.164,north,4.9,No
2017/04/27,06:00,0.373,0.230,0.389,0.359,0.325,0.190,0.164,north,4.0,No
2017/04/27,06:10,0.374,0.227,0.390,0.359,0.325,0.190,0.162,north-northeast,4.7,No
2017/04/27,06:20,0.372,0.226,0.388,0.358,0.327,0.189,0.161,north,4.5,No
2017/04/27,06:30,0.373,0.227,0.391,0.358,0.325,0.189,0.162,north,5.0,No
2017/04/27,06:40,0.374,0.227,0.389,0.356,0.324,0.189,0.163,north,4.6,No
2017/04/27,06:50,0.372,0.226,0.389,0.357,0.325,0.188,0.160,north-northwest,5.4,No
2017/04/27,07:00,0.373,0.227,0.390,0.359,0.324,0.189,0.161,north,5.8,No
2017/04/27,07:10,0.373,0.228,0.388,0.356,0.325,0.189,0.162,north,7.0,No
2017/04/27,07:20,0.373,0.226,0.387,0.356,0.324,0.189,0.161,north,6.9,No
2017/04/27,07:30,0.373,0.228,0.389,0.356,0.324,0.188,0.161,north,5.9,No
2017/04/27,07:40,0.373,0.227,0.388,0.358,0.327,0.189,0.161,north,3.9,No
2017/04/27,07:50,0.373,0.227,0.390,0.357,0.324,0.189,0.162,north,2.8,No
2017/04/27,08:00,0.374,0.228,0.389,0.356,0.325,0.188,0.162,north,2.2,No
2017/04/27,08:10,0.372,0.226,0.388,0.357,0.325,0.189,0.161,north-northeast,3.9,No
2017/04/27,08:20,0.373,0.226,0.390,0.356,0.325,0.188,0.161,north,4.2,No
2017/04/27,08:30,0.371,0.227,0.387,0.356,0.327,0.187,0.160,north-northeast,3.6,No
2017/04/27,08:40,0.372,0.227,0.388,0.359,0.324,0.187,0.160,northeast,3.8,No
2017/04/27,08:50,0.374,0.227,0.389,0.356,0.326,0.188,0.161,north-northeast,3.6,No
2017/04/27,09:00,0.372,0.228,0.388,0.360,0.324,0.189,0.161,north-northeast,6.1,No
2017/04/27,09:10,0.373,0.226,0.388,0.356,0.326,0.188,0.161,north-northeast,7.5,No
2017/04/27,09:20,0.372,0.228,0.388,0.357,0.323,0.188,0.162,northeast,6.8,No
2017/04/27,09:30,0.374,0.225,0.389,0.355,0.325,0.188,0.160,northeast,6.4,No
2017/04/27,09:40,0.370,0.227,0.388,0.357,0.323,0.189,0.161,northeast,6.8,No
2017/04/27,09:50,0.373,0.226,0.390,0.356,0.326,0.188,0.162,northeast,5.9,No
2017/04/27,10:00,0.372,0.227,0.389,0.358,0.326,0.188,0.161,northeast,5.4,No
2017/04/27,10:10,0.375,0.227,0.388,0.357,0.325,0.186,0.161,northeast,7.8,No
2017/04/27,10:20,0.371,0.226,0.388,0.359,0.325,0.187,0.162,northeast,7.9,No
2017/04/27,10:30,0.374,0.228,0.387,0.356,0.326,0.186,0.160,northeast,8.7,No
2017/04/27,10:40,0.371,0.227,0.388,0.358,0.325,0.188,0.163,northeast,8.1,No
2017/04/27,10:50,0.375,0.228,0.388,0.356,0.327,0.189,0.162,northeast,9.1,No
2017/04/27,11:00,0.372,0.227,0.388,0.351,0.324,0.190,0.162,northeast,9.2,No
2017/04/27,11:10,0.377,0.228,0.389,0.358,0.327,0.188,0.162,northeast,9.2,No
2017/04/27,11:20,0.372,0.227,0.389,0.357,0.325,0.190,0.163,northeast,10.7,No
2017/04/27,11:30,0.374,0.227,0.389,0.360,0.327,0.190,0.161,northeast,10.0,No
2017/04/27,11:40,0.373,0.229,0.390,0.356,0.326,0.190,0.163,northeast,8.2,No
2017/04/27,11:50,0.377,0.228,0.390,0.361,0.327,0.189,0.163,northeast,5.6,No
2017/04/27,12:00,0.373,0.229,0.389,0.359,0.325,0.190,0.163,northeast,5.0,No
2017/04/27,12:10,0.376,0.227,0.392,0.357,0.326,0.190,0.163,northeast,5.3,No
2017/04/27,12:20,0.373,0.229,0.389,0.360,0.325,0.189,0.163,northeast,4.5,No
2017/04/27,12:30,0.375,0.228,0.391,0.359,0.328,0.190,0.162,northeast,3.8,No
2017/04/27,12:40,0.375,0.230,0.388,0.361,0.326,0.189,0.162,northeast,4.7,No
2017/04/27,12:50,0.376,0.228,0.392,0.358,0.328,0.190,0.163,northeast,3.7,No
2017/04/27,13:00,0.373,0.230,0.389,0.360,0.327,0.190,0.163,east-northeast,2.2,No
2017/04/27,13:10,0.376,0.228,0.392,0.361,0.326,0.190,0.163,east,2.8,No
2017/04/27,13:20,0.373,0.228,0.390,0.359,0.327,0.190,0.163,east-northeast,1.1,No
2017/04/27,13:30,0.376,0.228,0.390,0.361,0.324,0.189,0.164,east-northeast,1.5,No
2017/04/27,13:40,0.374,0.229,0.391,0.357,0.327,0.191,0.162,south,1.4,No
2017/04/27,13:50,0.377,0.228,0.387,0.361,0.326,0.189,0.163,east,1.9,No
2017/04/27,14:00,0.373,0.230,0.393,0.360,0.326,0.190,0.163,east,1.8,No
2017/04/27,14:10,0.378,0.228,0.390,0.364,0.328,0.190,0.162,south,0.9,No
2017/04/27,14:20,0.373,0.228,0.393,0.360,0.326,0.190,0.163,east-southeast,2.1,No
2017/04/27,14:30,0.374,0.228,0.391,0.361,0.328,0.190,0.163,south-southeast,1.7,No
2017/04/27,14:40,0.376,0.229,0.388,0.363,0.323,0.191,0.164,southeast,1.9,No
2017/04/27,14:50,0.373,0.228,0.391,0.359,0.329,0.190,0.163,southeast,2.2,No
2017/04/27,15:00,0.377,0.229,0.391,0.364,0.329,0.192,0.163,south-southeast,2.1,No
2017/04/27,15:10,0.374,0.229,0.389,0.362,0.325,0.190,0.164,south,1.9,No
2017/04/27,15:20,0.377,0.229,0.393,0.365,0.328,0.190,0.164,south-southeast,1.6,No
2017/04/27,15:30,0.374,0.228,0.392,0.362,0.327,0.191,0.163,south-southeast,2.5,No
2017/04/27,15:40,0.378,0.230,0.393,0.363,0.331,0.191,0.163,south,1.6,No
2017/04/27,15:50,0.375,0.229,0.394,0.364,0.327,0.190,0.164,south-southwest,2.4,No
2017/04/27,16:00,0.377,0.229,0.395,0.363,0.330,0.191,0.163,south,2.2,No
2017/04/27,16:10,0.375,0.230,0.395,0.363,0.328,0.190,0.164,south,3.2,No
2017/04/27,16:20,0.378,0.229,0.392,0.361,0.330,0.191,0.164,south,2.0,No
2017/04/27,16:30,0.377,0.229,0.395,0.365,0.327,0.191,0.163,south,2.1,No
2017/04/27,16:40,0.378,0.230,0.393,0.362,0.329,0.191,0.164,south,1.1,No
2017/04/27,16:50,0.376,0.230,0.394,0.363,0.326,0.190,0.164,-,CALM,No
2017/04/27,17:00,0.376,0.231,0.393,0.365,0.330,0.192,0.163,south,1.2,No
2017/04/27,17:10,0.378,0.230,0.393,0.361,0.329,0.191,0.164,-,CALM,No
2017/04/27,17:20,0.376,0.229,0.396,0.364,0.331,0.191,0.163,south-southeast,0.6,No
2017/04/27,17:30,0.378,0.229,0.394,0.362,0.327,0.192,0.164,south,2.0,No
2017/04/27,17:40,0.376,0.229,0.393,0.362,0.330,0.191,0.164,south,3.0,No
2017/04/27,17:50,0.378,0.229,0.393,0.364,0.328,0.191,0.163,south-southeast,1.9,No
2017/04/27,18:00,0.376,0.229,0.393,0.361,0.330,0.191,0.164,south-southwest,0.9,No
2017/04/27,18:10,0.375,0.229,0.394,0.364,0.328,0.190,0.164,south-southwest,2.6,No
2017/04/27,18:20,0.377,0.229,0.392,0.363,0.328,0.191,0.164,south,2.4,No
2017/04/27,18:30,0.377,0.231,0.396,0.363,0.331,0.191,0.165,south-southwest,2.6,No
2017/04/27,18:40,0.378,0.229,0.393,0.364,0.329,0.191,0.165,south-southwest,3.8,No
2017/04/27,18:50,0.377,0.229,0.392,0.363,0.329,0.191,0.165,south-southwest,4.9,No
2017/04/27,19:00,0.376,0.230,0.395,0.362,0.330,0.191,0.163,south-southwest,4.8,No
2017/04/27,19:10,0.377,0.230,0.396,0.365,0.329,0.191,0.164,southwest,2.8,No
2017/04/27,19:20,0.377,0.229,0.394,0.364,0.329,0.192,0.164,west,2.5,No
2017/04/27,19:30,0.376,0.230,0.397,0.362,0.330,0.191,0.165,west,4.2,No
2017/04/27,19:40,0.379,0.230,0.394,0.365,0.328,0.192,0.164,west,5.2,No
2017/04/27,19:50,0.377,0.231,0.393,0.364,0.330,0.191,0.164,west-southwest,2.7,No
2017/04/27,20:00,0.378,0.231,0.395,0.364,0.330,0.191,0.165,northwest,2.9,No
2017/04/27,20:10,0.379,0.230,0.396,0.363,0.327,0.191,0.165,north-northwest,2.3,No
2017/04/27,20:20,0.377,0.231,0.393,0.363,0.329,0.191,0.164,north,1.9,No
2017/04/27,20:30,0.377,0.231,0.395,0.363,0.329,0.192,0.165,north-northeast,1.1,No
2017/04/27,20:40,0.378,0.230,0.395,0.364,0.328,0.191,0.164,north-northeast,2.8,No
2017/04/27,20:50,0.377,0.230,0.394,0.363,0.329,0.192,0.165,west-northwest,1.9,No
2017/04/27,21:00,0.376,0.231,0.395,0.363,0.329,0.191,0.165,north,1.5,No
2017/04/27,21:10,0.378,0.230,0.396,0.364,0.326,0.192,0.164,north-northwest,1.7,No
2017/04/27,21:20,0.376,0.229,0.394,0.365,0.330,0.191,0.165,north-northwest,1.7,No
2017/04/27,21:30,0.378,0.232,0.395,0.363,0.329,0.192,0.164,south-southwest,0.5,No
2017/04/27,21:40,0.378,0.231,0.395,0.365,0.328,0.191,0.164,south-southeast,0.8,No
2017/04/27,21:50,0.376,0.231,0.395,0.364,0.329,0.191,0.165,south,3.0,No
2017/04/27,22:00,0.377,0.230,0.394,0.363,0.330,0.192,0.163,south,3.2,No
2017/04/27,22:10,0.381,0.231,0.397,0.364,0.329,0.191,0.165,south,4.2,No
2017/04/27,22:20,0.377,0.231,0.395,0.364,0.330,0.192,0.164,south,2.5,No
2017/04/27,22:30,0.377,0.231,0.394,0.363,0.328,0.192,0.164,south-southwest,3.2,No
2017/04/27,22:40,0.377,0.230,0.394,0.363,0.329,0.191,0.165,south-southeast,2.8,No
2017/04/27,22:50,0.377,0.231,0.395,0.364,0.330,0.190,0.164,north,2.0,No
2017/04/27,23:00,0.376,0.231,0.393,0.363,0.329,0.190,0.165,south,2.2,No
2017/04/27,23:10,0.378,0.230,0.395,0.363,0.328,0.192,0.165,south-southwest,2.1,No
2017/04/27,23:20,0.376,0.229,0.395,0.364,0.330,0.191,0.164,southwest,1.3,No
2017/04/27,23:30,0.378,0.231,0.395,0.364,0.330,0.193,0.165,west-northwest,1.7,No
2017/04/27,23:40,0.378,0.229,0.395,0.364,0.329,0.192,0.164,northwest,1.3,No
2017/04/27,23:50,0.377,0.230,0.396,0.364,0.329,0.191,0.165,northwest,0.5,No
